KLM59W EDDH-EHAM

Flight info

Callsign KLM59W
Flight time N/A
Altitude 28000
Route WSN5G WSN N125 BLUFA
Aircraft B738/M-SDE2E3FGHIRWXY/LB1

Departure

Time 2026-05-05 23:34
Airport Hamburg Helmut Schmidt Airport (EDDH)

Arrival

Time N/A
Airport Amsterdam Airport Schiphol (EHAM)
Time Latitude Longitude Altitude Speed Heading
2026-05-05 23:06 53.62805 10.00239 39 ft 0 kts 63°
2026-05-05 23:26 53.62803 10.00232 39 ft 2 kts 63°
2026-05-05 23:26 53.62796 10.00210 39 ft 2 kts 62°
2026-05-05 23:26 53.62791 10.00190 39 ft 0 kts 63°
2026-05-05 23:27 53.62785 10.00174 38 ft 2 kts 46°
2026-05-05 23:27 53.62773 10.00159 38 ft 2 kts 23°
2026-05-05 23:27 53.62758 10.00153 39 ft 2 kts 360°
2026-05-05 23:27 53.62745 10.00156 39 ft 1 kts 338°
2026-05-05 23:28 53.62738 10.00162 39 ft 1 kts 330°
2026-05-05 23:28 53.62736 10.00164 39 ft 0 kts 333°
2026-05-05 23:30 53.62736 10.00163 39 ft 1 kts 331°
2026-05-05 23:31 53.62737 10.00163 39 ft 0 kts 331°
2026-05-05 23:32 53.62761 10.00141 38 ft 10 kts 333°
2026-05-05 23:32 53.62835 10.00079 36 ft 12 kts 334°
2026-05-05 23:32 53.62891 10.00041 35 ft 6 kts 352°
2026-05-05 23:32 53.62930 9.99991 34 ft 16 kts 288°
2026-05-05 23:33 53.62868 9.99822 30 ft 16 kts 244°
2026-05-05 23:33 53.62890 9.99721 30 ft 17 kts 330°
2026-05-05 23:33 53.63075 9.99577 29 ft 50 kts 332°
2026-05-05 23:33 53.63578 9.99139 34 ft 111 kts 332°
2026-05-05 23:34 53.64421 9.98403 52 ft 160 kts 334°
2026-05-05 23:34 53.65408 9.97528 664 ft 157 kts 336°
2026-05-05 23:34 53.66424 9.96647 984 ft 179 kts 337°
2026-05-05 23:34 53.67513 9.95705 1744 ft 171 kts 340°
2026-05-05 23:35 53.68543 9.94836 2358 ft 167 kts 340°
2026-05-05 23:35 53.69586 9.93956 2892 ft 169 kts 340°
2026-05-05 23:35 53.70618 9.92907 3300 ft 184 kts 324°
2026-05-05 23:35 53.71328 9.90989 3619 ft 208 kts 287°
2026-05-05 23:36 53.71328 9.88466 3950 ft 228 kts 258°
2026-05-05 23:36 53.70843 9.85875 4369 ft 241 kts 251°
2026-05-05 23:36 53.70265 9.83137 4764 ft 256 kts 251°
2026-05-05 23:36 53.69667 9.80222 5206 ft 269 kts 251°
2026-05-05 23:37 53.69058 9.77180 5725 ft 279 kts 251°
2026-05-05 23:37 53.68448 9.74097 6476 ft 280 kts 251°
2026-05-05 23:37 53.67787 9.70991 7227 ft 281 kts 249°
2026-05-05 23:37 53.67074 9.67973 8011 ft 283 kts 248°
2026-05-05 23:38 53.66335 9.64903 8763 ft 284 kts 249°
2026-05-05 23:38 53.65612 9.61863 9523 ft 285 kts 249°
2026-05-05 23:38 53.64884 9.58758 9835 ft 287 kts 249°
2026-05-05 23:38 53.64138 9.55558 10037 ft 300 kts 249°
2026-05-05 23:39 53.63358 9.52195 10447 ft 315 kts 249°
2026-05-05 23:39 53.62552 9.48729 10811 ft 330 kts 249°
2026-05-05 23:39 53.61695 9.45055 11373 ft 338 kts 249°
2026-05-05 23:39 53.60852 9.41432 12121 ft 340 kts 249°
2026-05-05 23:40 53.59986 9.37715 12887 ft 342 kts 249°
2026-05-05 23:40 53.59112 9.33972 13548 ft 348 kts 248°
2026-05-05 23:40 53.58227 9.30185 14338 ft 349 kts 248°
2026-05-05 23:40 53.57336 9.26389 15063 ft 353 kts 248°
2026-05-05 23:41 53.56435 9.22556 15748 ft 357 kts 248°
2026-05-05 23:41 53.55527 9.18702 16465 ft 360 kts 248°
2026-05-05 23:41 53.54606 9.14804 17140 ft 363 kts 248°
2026-05-05 23:41 53.53674 9.10865 17779 ft 367 kts 248°
2026-05-05 23:42 53.52729 9.06877 18458 ft 369 kts 248°
2026-05-05 23:42 53.51779 9.02873 19124 ft 372 kts 247°
2026-05-05 23:42 53.50827 8.98869 19752 ft 374 kts 247°
2026-05-05 23:42 53.49859 8.94809 20453 ft 375 kts 247°
2026-05-05 23:43 53.48896 8.90781 21046 ft 378 kts 247°
2026-05-05 23:43 53.47909 8.86660 21661 ft 380 kts 247°
2026-05-05 23:43 53.46928 8.82569 22204 ft 383 kts 246°
2026-05-05 23:43 53.45927 8.78403 22798 ft 385 kts 246°
2026-05-05 23:44 53.44931 8.74258 23330 ft 388 kts 246°
2026-05-05 23:44 53.43930 8.70103 23937 ft 389 kts 246°
2026-05-05 23:44 53.42906 8.65866 24425 ft 392 kts 246°
2026-05-05 23:44 53.41892 8.61674 24936 ft 395 kts 246°
2026-05-05 23:45 53.40850 8.57379 25413 ft 399 kts 246°
2026-05-05 23:45 53.39804 8.53068 25897 ft 402 kts 246°
2026-05-05 23:45 53.38764 8.48793 26558 ft 401 kts 246°
2026-05-05 23:45 53.37713 8.44477 27351 ft 396 kts 245°
2026-05-05 23:46 53.36680 8.40247 27831 ft 396 kts 245°
2026-05-05 23:46 53.35632 8.35967 27884 ft 398 kts 245°
2026-05-05 23:46 53.34582 8.31683 27876 ft 395 kts 245°
2026-05-05 23:46 53.33540 8.27438 27875 ft 394 kts 244°
2026-05-05 23:47 53.32488 8.23173 27876 ft 395 kts 244°
2026-05-05 23:47 53.31452 8.18975 27879 ft 394 kts 245°
2026-05-05 23:47 53.30401 8.14726 27881 ft 395 kts 245°
2026-05-05 23:47 53.29349 8.10472 27878 ft 396 kts 244°
2026-05-05 23:48 53.28294 8.06217 27877 ft 395 kts 245°
2026-05-05 23:48 53.27246 8.01998 27876 ft 396 kts 245°
2026-05-05 23:48 53.26193 7.97774 27880 ft 396 kts 245°
2026-05-05 23:48 53.25140 7.93567 27877 ft 396 kts 245°
2026-05-05 23:49 53.24066 7.89282 27875 ft 398 kts 244°
2026-05-05 23:49 53.23005 7.85058 27871 ft 398 kts 244°
2026-05-05 23:49 53.21934 7.80793 27872 ft 398 kts 244°
2026-05-05 23:49 53.20860 7.76516 27872 ft 396 kts 244°
2026-05-05 23:50 53.19798 7.72294 27868 ft 399 kts 245°
2026-05-05 23:50 53.18728 7.68057 27870 ft 398 kts 245°
2026-05-05 23:50 53.17659 7.63841 27873 ft 396 kts 244°
2026-05-05 23:50 53.16577 7.59584 27872 ft 396 kts 244°
2026-05-05 23:51 53.15515 7.55380 27871 ft 398 kts 244°
2026-05-05 23:51 53.14446 7.51152 27868 ft 399 kts 245°
2026-05-05 23:51 53.13361 7.46888 27864 ft 398 kts 245°
2026-05-05 23:51 53.12285 7.42691 27861 ft 399 kts 244°
2026-05-05 23:52 53.11188 7.38415 27858 ft 401 kts 244°
2026-05-05 23:52 53.10095 7.34157 27868 ft 399 kts 244°
2026-05-05 23:52 53.09003 7.29922 27871 ft 400 kts 244°
2026-05-05 23:52 53.07903 7.25654 27869 ft 401 kts 243°
2026-05-05 23:53 53.06823 7.21461 27816 ft 395 kts 244°
2026-05-05 23:53 53.05750 7.17288 27604 ft 386 kts 244°
2026-05-05 23:53 53.04702 7.13229 27330 ft 381 kts 244°
2026-05-05 23:53 53.03663 7.09213 27052 ft 379 kts 244°
2026-05-05 23:54 53.02612 7.05167 26775 ft 380 kts 243°
2026-05-05 23:54 53.01572 7.01187 26507 ft 378 kts 244°
2026-05-05 23:54 53.00531 6.97201 26233 ft 377 kts 244°
2026-05-05 23:54 52.99495 6.93239 25968 ft 375 kts 244°
2026-05-05 23:55 52.98461 6.89290 25870 ft 373 kts 244°
2026-05-05 23:55 52.97427 6.85341 25898 ft 375 kts 244°
2026-05-05 23:55 52.96392 6.81390 26036 ft 376 kts 244°
2026-05-05 23:55 52.95342 6.77394 26055 ft 383 kts 244°
2026-05-05 23:56 52.94292 6.73407 25836 ft 382 kts 244°
2026-05-05 23:56 52.93226 6.69372 25605 ft 380 kts 244°
2026-05-05 23:56 52.92066 6.65430 25286 ft 379 kts 239°
2026-05-05 23:56 52.90736 6.61685 24909 ft 376 kts 236°
2026-05-05 23:57 52.89347 6.58081 24380 ft 374 kts 236°
2026-05-05 23:57 52.87950 6.54530 24023 ft 367 kts 236°
2026-05-05 23:57 52.86577 6.51004 23597 ft 363 kts 237°
2026-05-05 23:57 52.85233 6.47505 23013 ft 364 kts 237°
2026-05-05 23:58 52.83897 6.43974 22522 ft 362 kts 237°
2026-05-05 23:58 52.82585 6.40469 22028 ft 360 kts 237°
2026-05-05 23:58 52.81317 6.37061 21557 ft 358 kts 238°
2026-05-05 23:58 52.80022 6.33582 21044 ft 357 kts 237°
2026-05-05 23:59 52.78721 6.30081 20602 ft 354 kts 237°
2026-05-05 23:59 52.77499 6.26795 20124 ft 353 kts 237°
2026-05-05 23:59 52.76203 6.23317 19645 ft 351 kts 237°
2026-05-05 23:59 52.74918 6.19877 19167 ft 348 kts 237°
2026-05-06 00:00 52.73662 6.16514 18650 ft 347 kts 237°
2026-05-06 00:00 52.72392 6.13122 18129 ft 346 kts 238°
2026-05-06 00:00 52.71138 6.09770 17663 ft 344 kts 238°
2026-05-06 00:00 52.69885 6.06426 17159 ft 342 kts 238°
2026-05-06 00:01 52.68653 6.03146 16680 ft 340 kts 238°
2026-05-06 00:01 52.67411 5.99833 16238 ft 337 kts 238°
2026-05-06 00:01 52.66198 5.96591 15766 ft 335 kts 238°
2026-05-06 00:01 52.64977 5.93326 15315 ft 333 kts 239°
2026-05-06 00:02 52.63766 5.90099 14853 ft 331 kts 239°
2026-05-06 00:02 52.62569 5.86918 14443 ft 328 kts 239°
2026-05-06 00:02 52.61367 5.83734 14014 ft 326 kts 239°
2026-05-06 00:02 52.60185 5.80613 13549 ft 325 kts 239°
2026-05-06 00:03 52.58980 5.77444 13061 ft 325 kts 239°
2026-05-06 00:03 52.57790 5.74322 12598 ft 324 kts 239°
2026-05-06 00:03 52.56605 5.71223 12165 ft 320 kts 239°
2026-05-06 00:03 52.55420 5.68116 11671 ft 320 kts 239°
2026-05-06 00:04 52.54250 5.65043 11276 ft 317 kts 239°
2026-05-06 00:04 52.53085 5.61985 10940 ft 312 kts 239°
2026-05-06 00:04 52.51955 5.59019 10717 ft 302 kts 239°
2026-05-06 00:04 52.50809 5.56181 10358 ft 300 kts 235°
2026-05-06 00:05 52.48301 5.50991 10158 ft 280 kts 231°
2026-05-06 00:05 52.47060 5.48566 10159 ft 284 kts 231°
2026-05-06 00:05 52.45792 5.46071 10157 ft 284 kts 231°
2026-05-06 00:06 52.44542 5.43588 10157 ft 282 kts 231°
2026-05-06 00:06 52.43289 5.41078 10159 ft 284 kts 231°
2026-05-06 00:06 52.42035 5.38580 9924 ft 287 kts 231°
2026-05-06 00:06 52.40777 5.36075 9616 ft 286 kts 231°
2026-05-06 00:07 52.39091 5.32722 9031 ft 288 kts 231°
2026-05-06 00:07 52.38263 5.31074 8808 ft 287 kts 231°
2026-05-06 00:07 52.36998 5.28555 8431 ft 286 kts 231°
2026-05-06 00:07 52.35768 5.26103 8065 ft 284 kts 231°
2026-05-06 00:08 52.34512 5.23605 7714 ft 282 kts 230°
2026-05-06 00:08 52.33275 5.21159 7355 ft 281 kts 230°
2026-05-06 00:08 52.32026 5.18696 6991 ft 280 kts 230°
2026-05-06 00:08 52.30822 5.16317 6653 ft 278 kts 230°
2026-05-06 00:09 52.29581 5.13930 6294 ft 277 kts 227°
2026-05-06 00:09 52.28228 5.11707 5950 ft 275 kts 223°
2026-05-06 00:09 52.26868 5.09617 5615 ft 274 kts 223°
2026-05-06 00:09 52.25497 5.07531 5435 ft 266 kts 223°
2026-05-06 00:10 52.24150 5.05484 5356 ft 258 kts 223°
2026-05-06 00:10 52.22815 5.03463 5246 ft 269 kts 223°
2026-05-06 00:10 52.21428 5.01368 4963 ft 273 kts 223°
2026-05-06 00:10 52.20054 4.99300 4614 ft 272 kts 223°
2026-05-06 00:11 52.19064 4.97815 4356 ft 272 kts 223°